WEATHER DATA

YESTERDAY
Time Temp. Dewp. Hum. Bar.
00:04 4.8 0.2 72 1023.2
00:25 4.7 0.3 73 1023.2
00:35 4.5 0.3 74 1023.2
00:45 4.4 0.4 75 1023.2
00:55 4.2 0.4 76 1023.1
01:05 4.1 0.4 77 1022.9
01:16 3.9 0.6 79 1022.9
01:26 3.6 0.5 80 1022.7
01:35 3.4 0.5 81 1022.9
01:45 3.3 0.7 83 1022.6
01:56 3.1 0.7 84 1022.7
02:06 3 0.6 84 1022.6
02:16 2.9 0.8 86 1022.4
02:25 2.8 0.9 87 1022.4
02:36 2.7 0.8 87 1022.4
02:46 2.7 0.9 88 1022.2
02:56 2.7 1.1 89 1022
03:07 2.6 1 89 1022.1
03:16 2.6 1.1 90 1022.2
03:26 2.7 1.2 90 1021.9
03:36 2.7 1.2 90 1021.9
03:47 2.7 1.4 91 1022
03:57 2.7 1.4 91 1021.9
04:07 2.8 1.5 91 1022
04:16 2.8 1.5 91 1022.3
04:27 2.8 1.5 91 1021.8
04:37 2.8 1.5 91 1021.9
04:47 2.8 1.5 91 1021.8
04:57 2.8 1.5 91 1021.9
05:07 2.8 1.5 91 1021.8
05:17 2.9 1.7 92 1021.9
05:27 3 1.8 92 1021.8
05:38 3 1.8 92 1021.6
05:48 3 1.8 92 1021.4
05:57 3 1.8 92 1021.3
06:08 3 1.8 92 1021.2
06:18 3 1.8 92 1021.3
06:28 3.1 2.1 93 1021.1
06:38 3.1 2.1 93 1021.3
06:49 3.1 2.1 93 1021.3
06:58 3.2 2.2 93 1021.1
07:08 3.2 2.2 93 1021
07:18 3.2 2.2 93 1021.1
07:29 3.2 2.2 93 1021.1
07:39 3.2 2.2 93 1020.9
07:48 3.2 2.2 93 1021
07:59 3.1 2.2 94 1020.9
08:09 3 2 93 1020.8
08:19 2.8 1.8 93 1020.5
08:29 2.7 1.7 93 1020.9
08:39 2.7 1.7 93 1020.8
08:49 2.6 1.6 93 1020.5
08:59 2.6 1.6 93 1020.4
09:10 2.6 1.6 93 1020.3
09:20 2.6 1.6 93 1020.2
09:30 2.6 1.7 94 1020.3
09:40 2.6 1.7 94 1020
09:50 2.6 1.7 94 1019.8
10:00 2.6 1.7 94 1019.5
10:10 2.7 1.8 94 1019.2
10:21 2.7 1.8 94 1018.9
10:30 2.7 1.8 94 1018.5
10:40 2.7 1.8 94 1018.3
10:50 2.7 1.7 93 1017.9
11:01 2.7 1.7 93 1018
11:11 2.8 1.8 93 1017.9
11:20 2.8 1.8 93 1017.7
11:31 2.9 1.9 93 1017.4
11:41 3.1 2.1 93 1017.2
11:51 3.2 2.2 93 1017.1
12:01 3.4 2.4 93 1016.8
12:12 3.6 2.4 92 1016.3
12:21 3.8 2.6 92 1016
12:30 3.9 2.6 91 1015.8
12:42 3.9 2.4 90 1015.7
12:52 4.1 2.5 89 1015.5
13:02 4.3 2.7 89 1015.2
13:11 4.4 2.7 89 1015.2
13:22 4.5 2.7 88 1014.9
13:32 4.7 2.9 88 1014.8
13:42 4.8 2.8 87 1014.7
13:52 4.9 2.9 87 1014.3
14:02 5.1 3.1 87 1014.1
14:12 5.2 3.1 86 1013.9
14:22 5.3 3.3 87 1014.1
14:32 5.5 3.3 86 1013.9
14:43 5.6 3.4 86 1013.7
14:52 5.8 3.6 86 1013.7
15:02 6 3.8 86 1013.6
15:13 6.2 4 86 1013.6
15:23 6.5 4.2 85 1013.6
15:33 6.7 4.4 85 1013.4
15:43 6.8 4.3 84 1013.2
15:58 7.2 4.5 83 1012.5
16:08 7.4 4.5 82 1012.2
16:19 7.5 4.5 81 1012.4
16:29 7.7 4.7 81 1012.2
16:39 7.7 4.5 80 1012.1
16:48 7.8 4.6 80 1012
16:59 7.8 4.6 80 1012
17:09 7.8 4.6 80 1012
17:19 7.9 4.7 80 1012
17:29 7.9 4.7 80 1012.1
17:39 8 4.9 81 1012.1
17:49 8 4.9 81 1012.1
17:59 8.1 5 81 1011.9
18:10 8.1 5 81 1011.7
18:20 8.2 5 80 1011.8
18:29 8.3 5.1 80 1011.9
18:39 8.4 5.2 80 1011.9
18:50 8.5 5.3 80 1012
19:00 8.6 5.3 80 1012
19:10 8.4 5.5 82 1011.9
19:20 8.3 5.6 83 1011.8
19:30 8.1 5.6 84 1012
19:40 8 5.6 85 1011.9
19:50 7.9 5.7 86 1012.1
20:01 7.8 5.8 87 1012.1
20:15 7.6 5.7 88 1012.5
20:25 7.5 5.8 89 1012.4
20:36 7.4 5.9 90 1012.2
20:46 7.3 5.8 90 1012.2
20:55 7.2 5.8 91 1012.5
21:05 7.2 5.8 91 1012.6
21:16 7.2 6 92 1012.7
21:36 7.1 6 93 1012.7
21:46 7.1 6 93 1013
21:56 7.1 6 93 1013
22:06 7 5.9 93 1013.2
22:27 7 5.9 93 1013.2
22:36 7 5.9 93 1013.4
22:46 7 5.9 93 1013.4
22:57 7 5.9 93 1013.4
23:07 6.9 5.8 93 1013.6
23:17 6.9 5.8 93 1013.6
23:27 6.9 5.8 93 1013.5
23:37 6.9 5.8 93 1013.7
23:47 6.9 5.8 93 1013.9
23:57 6.9 5.8 93 1014

DAY STATISTIC

2020-02-23
TEMPERATURE
AVERAGE
4.9
HIGH
8.6
19:00
LOW
2.6
03:07
PRESSURE
AVERAGE
1017.2
HIGH
1023.2
00:04
LOW
1011.7
18:10
DEWPOINT
AVERAGE
3.0
HIGH
6.0
21:16
LOW
0.2
00:04
HUMIDITY
AVERAGE
88
HIGH
94
07:59
LOW
72
00:04
TEMPERATURE (°C)
LOW
2.6
HIGH
8.6
AVERAGE
4.9
PRESSURE (hpa)
LOW
1011.7
HIGH
1023.2
AVERAGE
1017.2
DEVICE